Regional Weather Roundup
Issued by NWS

Home | Current Version | Previous Version | Graphics & Text | Print | Product List | Glossary On
Versions: 1 2 3 4 5 6 7 8 9 10 11 12 13 14 15 16 17 18 19 20 21 22 23 24 25 26 27 28 29 30 31 32 33 34 35 36 37 38 39 40 41 42 43 44 45 46 47 48 49 50
000
ASUS43 KLOT 291009
RWRIL

ILLINOIS REGIONAL WEATHER ROUNDUP
NATIONAL WEATHER SERVICE CHICAGO/ROMEOVILLE IL
500 AM CDT SUN MAY 29 2016

NOTE: "FAIR" INDICATES FEW OR NO CLOUDS BELOW 12,000 FEET WITH NO
SIGNIFICANT WEATHER AND/OR OBSTRUCTIONS TO VISIBILITY.

* THESE STATIONS ARE NOT UNDER NWS QUALITY CONTROL. THEY ALSO MAY NOT
  REPORT WEATHER SUCH AS PRECIPITATION OR FOG.

ILZ001-002-007-009-015-016-024-291100-
NORTHWEST ILLINOIS

CITY           SKY/WX    TMP DP  RH WIND       PRES   REMARKS
MOLINE         CLEAR     66  57  72 SW9       29.94R
STERLING*      CLEAR     65  60  84 SW5       29.94S
SAVANNA*       CLEAR     66  60  79 SW12G18   29.91S
$$

ILZ003-004-008-010-011-017-018-291100-
NORTH CENTRAL ILLINOIS

CITY           SKY/WX    TMP DP  RH WIND       PRES   REMARKS
ROCKFORD       MOCLDY    64  60  87 S7        29.95R
FREEPORT*      CLEAR     63  59  88 SW12      29.94R
ROCHELLE*      CLEAR     64  61  92 S12       29.94S
DE KALB*       CLEAR     63  61  94 S8        29.96S
$$

ILZ005-006-012>014-019>023-291100-
NORTHEAST ILLINOIS

CITY           SKY/WX    TMP DP  RH WIND       PRES   REMARKS
CHICAGO-OHARE  PTCLDY    63  61  93 S8        29.95S
CHICAGO-MIDWAY PTCLDY    65  59  81 SW7       29.96R
AURORA         CLEAR     63  61  93 S9        29.96S
LANSING*       PTCLDY    63  58  85 SW7       29.98S
JOLIET*        CLEAR     64  62  95 S5        29.98R
WAUKEGAN       CLEAR     61  60  97 S6        29.93S
DUPAGE AIRPORT CLEAR     62  59  90 S6        29.95S
KANKAKEE*      CLEAR     63  60  90 SW9       30.01R
WHEELING       CLEAR     64  61  90 S6        29.96S
MORRIS*        CLEAR     64  62  94 S5        29.97R
ROMEOVILLE*    CLEAR     63  60  89 SW9       29.98R
NORTHERLY ISL    N/A     66  58  75 S5          N/A
NORTHERLY ISL    N/A     66  58  75 S5          N/A
$$

LMZ740>746-291100-
SOUTHERN LAKE MICHIGAN

STATION/POSITION SKY/WX   TEMP    WIND        PRES    VSBY  WAVE
                          AIR SEA DIR/SP/G                  HT/PER
                          (F)     (DEG/KT/KT) (MB)    (MI)  (FT/S)
SOUTHERN BUOY              56 50  190/ 12/ 14 1013.6R         1/ 4
WILMETTE HARBOR            59 52  230/  8/  8   N/A           1/ 2
HARRISON CRIB              66     200/ 12/ 13   N/A
BURNHAM HARBOR             66     240/  5/  7   N/A
CALUMET HARBOR             66     200/  9/ 12 1013.9F
BURNS HARBOR               68     200/ 11/ 17 1015.2R
MICHIGAN CITY              67     190/  5/  6   N/A
MICHIGAN CITY 6N           63 56  210/ 10/ 12   N/A           1/ 2
ST. JOSEPH                 64 61  160/  8/  8   N/A           1
$$

ILZ025>027-034>036-040-047-049-050-058-095>099-291100-
WEST-CENTRAL ILLINOIS

CITY           SKY/WX    TMP DP  RH WIND       PRES   REMARKS
QUINCY         CLEAR     63  59  87 S7        30.01R
GALESBURG*     CLEAR     64  58  82 SW12      29.97R
MACOMB*        CLEAR     65  59  83 SW8       30.01R
JACKSONVILLE*  CLEAR     64  62  92 S5        30.02R
PITTSFIELD*    CLEAR     64  62  94 SW5       30.03S
$$

ILZ028>032-037-038-041>044-048-051>054-059>061-291100-
CENTRAL ILLINOIS

CITY           SKY/WX    TMP DP  RH WIND       PRES   REMARKS
PONTIAC        CLEAR     66  65  94 S9        30.00S
BLOOMINGTON    CLEAR     63  63 100 S7        30.03R
DECATUR        CLEAR     65  63  93 S6        30.03R
PEORIA         CLEAR     64  61  90 S7        29.99S
LACON*         CLEAR     64  61  90 S5        29.97R
LINCOLN*       CLEAR     65  65 100 CALM      30.01S
SPRINGFIELD    CLEAR     65  63  93 SW5       30.02R
TAYLORVILLE    CLEAR     64  63  96 S5        30.04R
$$

ILZ033-039-045-046-055>057-062-063-291100-
EAST-CENTRAL ILLINOIS

CITY           SKY/WX    TMP DP  RH WIND       PRES   REMARKS
CHAMPAIGN      CLEAR     63  60  90 S6        30.03S
RANTOUL*       CLEAR     64  62  91 S6        30.02S
MATTOON        CLEAR     69  65  86 SW6       30.03S
PARIS*         PTCLDY    65  65 100 CALM      30.05S FOG
$$

ILZ079-100>102-291100-
SOUTHWEST ILLINOIS

CITY           SKY/WX    TMP DP  RH WIND       PRES   REMARKS
ALTON          CLEAR     62  59  92 CALM      30.04R
BELLEVILLE     CLEAR     65  65 100 CALM      30.03R
CAHOKIA*       CLEAR     65  63  93 S3        30.04R
SPARTA*        CLEAR     69  66  92 SW3       30.05S
$$

ILZ064>066-069>071-074>076-080>082-084>086-088>090-092>094-291100-
SOUTH-CENTRAL ILLINOIS

CITY           SKY/WX    TMP DP  RH WIND       PRES   REMARKS
CARBONDALE     FOG       65  64  97 CALM      30.05R VSB 1
CAIRO*         PTCLDY    67  66  96 CALM      30.07R
EFFINGHAM*     MOCLDY    66  66 100 CALM      30.06S FOG
MARION         CLEAR     68  66  94 CALM      30.07R FOG
MT. VERNON     CLOUDY    63  57  82 CALM      30.06S
CENTRALIA*     CLOUDY    67  67 100 CALM      30.05R
SALEM*         PTCLDY    69  67  93 SE3       30.05S
METROPOLIS*    MOCLDY    65  65 100 CALM      30.08R
$$

ILZ067-068-072-073-078-083-087-091-291100-
SOUTHEAST ILLINOIS

CITY           SKY/WX    TMP DP  RH WIND       PRES   REMARKS
LAWRENCEVILLE  CLEAR     68  67  96 S7        30.06S FOG
FLORA*           N/A     66  65  97 CALM      30.06R FOG
FAIRFIELD*     CLEAR     67  66  99 CALM      30.06R
HARRISBURG*    CLEAR     65  65 100 CALM      30.07R FOG
ROBINSON*      CLEAR     65  65  98 S7        30.06S
CARMI*         MOCLDY    66  66  99 CALM      30.07R FOG
$$

ABBREVIATIONS USED IN REMARKS
   TC - TEMPERATURE IN CELSIUS
  WCI - WIND CHILL INDEX
   HX - HEAT INDEX
  VSB - VISIBILITY
$$




USA.gov is the U.S. government's official web portal to all federal, state and local government web resources and services.